Orbital Elements at Epoch 2459200.5 (2020-Dec-17.0) TDB
Reference: JPL 23 (heliocentric ecliptic J2000)
Element | Value | Uncertainty (1-sigma) | Units |
e | .1427696338848989 | 3.2495e-08 | |
a | 2.263739286981541 | 7.4969e-09 | au |
q | 1.940546057768324 | 7.3451e-08 | au |
i | 4.014441446186665 | 3.7104e-06 | deg |
node | 144.7707458590896 | 5.929e-05 | deg |
peri | 122.0581202307856 | 6.104e-05 | deg |
M | 135.9297355397477 | 1.5031e-05 | deg |
tp | 2458730.768148086138 (2019-Sep-04.26814809) | 5.1524e-05 | TDB |
period | 1244.050582586045 3.41 | 6.1799e-06 1.692e-08 | d yr |
n | .2893773010834151 | 1.4375e-09 | deg/d |
Q | 2.586932516194758 | 8.5672e-09 | au |
|
| | Orbit Determination Parameters
Additional Information
|